1529618401.14,19365,22.25,73890.3,7.41,6.87,6.79,0,*76
1529618402.34,19366,22.25,73886.5,7.41,6.87,6.75,0,*79
1529618403.54,19367,22.25,73888.0,7.41,6.87,6.75,0,*78
1529618404.73,19368,22.25,73884.5,7.41,7.01,6.87,0,*75
1529618405.9,19369,22.25,73888.3,7.41,7.01,6.97,0,*75
1529618407.1,19370,22.25,73886.5,7.41,7.09,6.87,0,*74
1529618408.29,19371,22.25,73888.3,7.41,7.01,6.87,0,*7D
1529618409.49,19372,22.25,73892.8,7.41,7.09,6.87,0,*76
1529618410.69,19373,22.25,73890.3,7.41,6.43,6.29,0,*7C
1529618411.89,19374,22.25,73888.3,7.41,6.39,6.21,0,*7E
1529618413.11,19375,22.25,73890.3,7.41,6.61,6.43,0,*76
1529618414.36,19376,22.25,73888.5,7.43,6.53,6.51,0,*75
1529618415.59,19377,22.25,73890.8,7.41,6.61,6.43,0,*74
1529618416.81,19378,22.25,73888.5,7.41,6.73,6.53,0,*79
1529618418.05,19379,22.25,73890.8,7.39,6.69,6.57,0,*78
1529618419.27,19380,22.25,73890.0,7.41,6.73,6.73,0,*7C
1529618420.44,19381,22.25,73888.8,7.41,6.75,6.79,0,*71
1529618421.61,19382,22.25,73888.5,7.41,6.75,6.79,0,*72
1529618422.78,19383,22.25,73888.5,7.41,6.79,6.79,0,*7F
1529618424.0,19384,22.25,73890.3,7.41,6.61,6.61,0,*78
1529618425.22,19385,22.25,73888.0,7.41,6.43,6.43,0,*79
1529618426.47,19386,22.25,73888.3,7.39,6.57,6.57,0,*75
1529618427.71,19387,22.25,73890.8,7.39,6.29,6.17,0,*79
1529618428.97,19388,22.25,73890.0,7.39,6.47,6.47,0,*7B
1529618430.21,19389,22.25,73890.3,7.37,6.43,6.47,0,*70
1529618431.46,19390,22.25,73890.5,7.39,6.17,6.17,0,*72
1529618432.65,19391,22.25,73892.5,7.37,6.21,6.25,0,*79
1529618433.86,19392,22.25,73888.3,7.35,6.33,6.25,0,*7B
1529618435.1,19393,22.25,73890.0,7.35,6.57,6.57,0,*7D
1529618436.31,19394,22.25,73888.5,7.35,6.33,6.11,0,*7A
1529618437.56,19395,22.25,73892.0,7.35,6.57,6.57,0,*7B
1529618438.79,19396,22.25,73892.5,7.33,6.65,6.61,0,*7A
1529618439.98,19397,22.25,73892.8,7.35,6.83,6.83,0,*79
1529618441.18,19398,22.25,73888.5,7.35,6.79,6.83,0,*73
1529618442.44,19399,22.25,73894.3,7.35,6.91,6.91,0,*77
1529618443.68,19400,22.25,73892.3,7.35,6.69,6.69,0,*70
1529618444.92,19401,22.25,73894.5,7.35,6.69,6.69,0,*71
1529618446.18,19402,22.25,73892.8,7.35,4.93,5.05,0,*7C
1529618447.37,19403,22.25,73894.5,7.33,6.21,6.21,0,*75
1529618448.57,19404,22.25,73892.3,7.31,4.07,3.81,0,*79
1529618449.81,19405,22.25,73892.5,7.29,4.97,4.75,0,*74
1529618451.0,19406,22.25,73892.5,7.29,5.67,5.33,0,*7A
1529618452.2,19407,22.25,73896.3,7.29,4.75,4.45,0,*79
1529618453.38,19408,22.25,73892.0,7.25,5.41,5.11,0,*7C
1529618454.56,19409,22.25,73892.5,7.25,5.67,5.45,0,*78
1529618455.76,19410,22.25,73890.3,7.25,5.77,5.63,0,*75
1529618456.97,19411,22.25,73888.3,7.25,5.77,5.77,0,*71
1529618458.15,19412,22.25,73890.5,7.25,6.21,6.25,0,*76
1529618459.39,19413,22.25,73890.3,7.25,6.47,6.47,0,*73
1529618460.58,19414,22.25,73890.3,7.25,6.33,6.25,0,*73
1529618461.78,19415,22.25,73890.3,7.25,5.67,5.51,0,*70
1529618463.0,19416,22.25,73888.5,7.21,5.85,5.77,0,*7F
1529618464.19,19417,22.25,73888.8,7.25,6.03,5.99,0,*77
1529618465.4,19418,22.25,73892.3,7.19,6.03,6.07,0,*73
1529618466.58,19419,22.25,73888.3,7.21,5.99,6.07,0,*79
1529618467.77,19420,22.25,73890.0,7.21,5.99,5.99,0,*77
1529618468.99,19421,22.25,73890.8,7.21,5.77,5.73,0,*72
1529618470.22,19422,22.25,73890.0,7.17,5.93,5.93,0,*70
1529618471.4,19423,22.25,73888.5,7.17,5.95,6.03,0,*7D
1529618472.63,19424,22.25,73890.8,7.17,5.93,5.93,0,*76
1529618473.84,19425,22.25,73888.5,7.17,5.81,5.67,0,*7F
1529618475.06,19426,22.25,73890.8,7.17,5.73,5.73,0,*74
1529618476.24,19427,22.25,73888.3,7.17,5.71,5.71,0,*75
1529618477.46,19428,22.25,73886.5,7.17,5.81,5.81,0,*7A
1529618478.69,19429,22.25,73890.0,7.13,5.89,5.89,0,*7F
1529618479.9,19430,22.25,73890.8,7.15,6.11,6.03,0,*72
1529618481.13,19431,22.25,73888.5,7.15,5.99,3.23,0,*77
1529618482.36,19432,22.25,73888.5,6.99,-0.69,-0.85,0,*74
1529618483.61,19433,22.25,73886.0,6.95,3.71,3.53,0,*7B
1529618484.78,19434,22.25,73888.5,6.93,4.89,4.85,0,*76
1529618485.97,19435,22.25,73884.5,6.93,5.23,5.11,0,*7A
1529618487.2,19436,22.25,73886.3,6.91,4.97,4.89,0,*75
1529618488.43,19437,22.25,73882.0,6.91,5.01,4.89,0,*7A
1529618489.67,19438,22.25,73886.3,6.89,4.97,4.97,0,*7D
1529618490.87,19439,22.25,73882.3,6.89,5.07,5.05,0,*7E
1529618492.08,19440,22.25,73886.5,6.91,5.49,5.33,0,*76
1529618493.3,19441,22.25,73884.8,6.89,5.51,5.51,0,*73
1529618494.5,19442,22.25,73882.5,6.91,5.45,5.33,0,*78
1529618495.68,19443,22.25,73882.3,6.89,5.37,5.29,0,*7E
1529618496.9,19444,22.25,73880.0,6.89,5.55,5.51,0,*72
1529618498.11,19445,22.25,73882.3,6.89,5.63,5.55,0,*72
1529618499.31,19446,22.25,73882.5,6.89,5.73,5.63,0,*75
1529618500.54,19447,22.25,73882.0,6.89,5.55,5.51,0,*71
1529618501.74,19448,22.25,73876.0,6.89,5.77,5.63,0,*7F
1529618502.97,19449,22.25,73878.8,6.91,5.77,5.67,0,*73
1529618504.17,19450,22.25,73882.3,6.89,5.55,5.63,0,*76
1529618505.38,19451,22.25,73882.0,6.91,5.59,5.59,0,*7B
1529618506.6,19452,22.25,73882.5,6.91,5.77,5.45,0,*79
1529618507.81,19453,22.25,73884.8,6.91,5.59,5.59,0,*79
1529618509.01,19454,22.25,73880.8,6.91,5.41,5.33,0,*7B
1529618510.19,19455,22.25,73882.5,6.89,5.41,5.29,0,*78
1529618511.37,19456,22.25,73884.8,6.89,5.37,5.37,0,*75
1529618512.58,19457,22.25,73876.5,6.91,5.33,5.19,0,*75
1529618513.76,19458,22.25,73880.0,6.89,5.41,5.29,0,*75
1529618514.98,19459,22.19,73874.5,6.89,5.51,5.51,0,*7A
1529618516.22,19460,22.25,73878.3,6.89,5.05,4.93,0,*7E
1529618517.45,19461,22.25,73874.8,6.87,5.11,5.05,0,*7A
1529618518.67,19462,22.25,73874.8,6.89,5.51,5.51,0,*72
1529618519.88,19463,22.25,73874.5,6.87,5.71,5.71,0,*7D
1529618521.08,19464,22.25,73876.0,6.89,5.51,5.45,0,*71
1529618522.27,19465,22.25,73874.0,6.87,5.49,5.41,0,*73
1529618523.52,19466,22.25,73876.0,6.87,5.27,5.27,0,*78
1529618524.72,19467,22.25,73872.0,6.87,5.23,5.15,0,*7C
1529618525.92,19468,22.25,73878.5,6.87,5.49,5.37,0,*7F
1529618527.17,19469,22.25,73876.5,6.87,5.51,5.51,0,*77
1529618528.35,19470,22.19,73874.5,6.85,5.41,5.41,0,*7D
1529618529.52,19471,22.25,73878.8,6.85,5.49,5.49,0,*7C
1529618530.71,19472,22.25,73876.5,6.85,5.51,5.49,0,*76
1529618531.96,19473,22.25,73874.5,6.87,5.27,5.27,0,*7C
1529618533.16,19474,22.25,73874.0,6.85,5.49,5.51,0,*70
1529618534.36,19475,22.25,73878.8,6.87,5.49,5.49,0,*7A
1529618535.55,19476,22.25,73876.3,6.85,5.51,5.41,0,*7A
1529618536.76,19477,22.25,73878.0,6.87,5.59,5.59,0,*78
1529618537.98,19478,22.25,73876.0,6.85,5.73,5.73,0,*75
1529618539.23,19479,22.25,73872.8,6.87,5.73,5.73,0,*76
1529618540.48,19480,22.19,73874.5,6.87,5.93,5.93,0,*70
1529618541.7,19481,22.25,73876.5,6.87,6.03,6.03,0,*71
1529618542.88,19482,22.25,73872.8,6.85,6.21,6.21,0,*70
1529618544.09,19483,22.25,73874.5,6.87,6.29,6.29,0,*73
1529618545.29,19484,22.25,73874.5,6.85,6.17,6.29,0,*7B
1529618546.48,19485,22.19,73870.5,6.89,6.25,6.25,0,*7B
1529618547.73,19486,22.25,73870.3,6.87,6.17,6.17,0,*76
1529618548.93,19487,22.19,73868.8,6.89,6.11,6.17,0,*7F
1529618550.11,19488,22.19,73868.5,6.89,6.07,6.11,0,*71
1529618551.29,19489,22.19,73870.8,6.89,6.07,6.07,0,*77
1529618552.47,19490,22.25,73870.8,6.89,6.07,6.11,0,*78
1529618553.7,19491,22.19,73864.5,6.89,6.17,6.17,0,*7E
1529618554.94,19492,22.25,73870.3,6.91,6.03,5.93,0,*7E
1529618556.17,19493,22.25,73868.0,6.89,5.89,5.73,0,*79
1529618557.42,19494,22.25,73864.8,6.91,5.93,5.89,0,*79
1529618558.63,19495,22.19,73866.3,6.89,5.95,5.85,0,*7B
1529618559.84,19496,22.25,73868.5,6.89,5.73,5.67,0,*7C
1529618561.1,19497,22.19,73866.3,6.91,5.93,5.81,0,*72
1529618562.3,19498,22.19,73870.3,6.89,5.99,5.77,0,*77
1529618563.53,19499,22.25,73870.8,6.89,5.89,5.77,0,*77
1529618564.7,19500,22.25,73870.5,6.89,5.29,5.45,0,*7D
1529618565.93,19501,22.25,73870.5,6.89,5.77,5.55,0,*76
1529618567.11,19502,22.19,73868.5,6.89,5.95,5.63,0,*7C
1529618568.32,19503,22.19,73866.5,6.89,5.85,5.67,0,*78
1529618569.5,19504,22.19,73868.8,6.89,5.37,5.07,0,*70
1529618570.74,19505,22.19,73870.3,6.87,5.23,5.01,0,*7C
1529618571.95,19506,22.19,73870.3,6.87,5.37,5.11,0,*7B
1529618573.15,19507,22.19,73868.5,6.89,4.93,4.85,0,*77
1529618574.33,19508,22.25,73870.5,6.85,5.15,5.11,0,*77
1529618575.51,19509,22.19,73864.3,6.85,5.23,5.15,0,*77
1529618576.69,19510,22.25,73868.8,6.85,5.15,5.15,0,*7A
1529618577.88,19511,22.19,73866.3,6.81,5.29,5.33,0,*74
1529618579.07,19512,22.19,73870.0,6.83,5.19,5.19,0,*7E
1529618580.28,19513,22.19,73868.5,6.85,4.89,4.93,0,*72
1529618581.5,19514,22.19,73870.3,6.81,4.41,4.31,0,*7D
1529618582.7,19515,22.19,73868.0,6.81,4.85,4.85,0,*7B
1529618583.89,19516,22.19,73868.0,6.75,5.11,5.11,0,*73
1529618585.07,19517,22.19,73868.0,6.79,5.27,5.29,0,*70
1529618586.3,19518,22.25,73868.8,6.71,2.05,2.13,0,*7E
1529618587.51,19519,22.19,73870.0,6.67,3.81,3.79,0,*78
1529618588.74,19520,22.19,73862.0,6.69,4.89,4.75,0,*78
1529618589.94,19521,22.19,73864.8,6.69,5.07,4.89,0,*7D
1529618591.17,19522,22.19,73864.3,6.67,2.13,1.37,0,*72
1529618592.43,19523,22.19,73864.5,6.65,3.79,3.79,0,*74
1529618593.63,19524,22.19,73864.5,6.61,4.57,4.57,0,*77
1529618594.84,19525,22.19,73866.3,6.61,4.53,4.41,0,*75
1529618596.08,19526,22.19,73860.5,6.59,3.03,3.11,0,*7D
1529618597.28,19527,22.19,73862.3,6.53,4.07,4.07,0,*75
1529618598.54,19528,22.19,73864.5,6.53,3.75,3.75,0,*7A
1529618599.8,19529,22.19,73864.5,6.49,-19.57,-39.79,0,*7E
1529618601.03,19530,22.19,73862.8,6.19,-32.19,-36.85,0,*7C
1529618602.25,19531,22.19,73862.0,5.95,-12.89,-14.43,0,*7B
1529618603.49,19532,22.19,73862.0,5.89,-2.83,-3.59,0,*73
1529618604.73,19533,22.19,73860.3,5.85,1.63,1.63,0,*78
1529618605.99,19534,22.19,73862.8,5.91,-2.47,-2.51,0,*7D
1529618607.22,19535,22.19,73858.3,5.81,0.83,0.75,0,*73
1529618608.44,19536,22.19,73858.3,5.81,3.37,3.25,0,*7A
1529618609.66,19537,22.19,73856.5,5.83,4.01,3.79,0,*72
1529618610.86,19538,22.19,73856.8,5.83,4.01,3.85,0,*7E
1529618612.06,19539,22.19,73856.8,5.85,4.07,3.89,0,*73
1529618613.25,19540,22.19,73860.0,5.91,4.27,4.07,0,*7B
1529618614.49,19541,22.19,73858.5,5.89,-0.81,-1.09,0,*40
1529618615.68,19542,22.19,73858.8,5.83,1.75,1.47,0,*79
1529618616.9,19543,22.19,73854.3,5.83,2.85,2.69,0,*7B
1529618618.12,19544,22.19,73856.3,5.83,1.51,1.37,0,*7E
1529618619.37,19545,22.19,73854.0,5.81,3.37,3.45,0,*78
1529618620.58,19546,22.19,73850.8,5.81,3.55,3.37,0,*7A
1529618621.83,19547,22.19,73852.0,5.81,3.15,0.25,0,*4F
1529618623.07,19548,22.19,73850.5,5.77,0.91,0.67,0,*70
1529618624.28,19549,22.19,73854.8,5.77,3.19,3.29,0,*7B
1529618625.53,19550,22.19,73854.5,5.77,4.05,4.05,0,*70
1529618626.73,19551,22.19,73854.8,5.77,4.37,4.27,0,*70
1529618627.92,19552,22.19,73850.0,5.77,4.27,4.27,0,*72
1529618629.12,19553,22.19,73850.5,5.81,4.41,4.41,0,*7A
1529618630.34,19554,22.19,73854.8,5.81,4.27,4.31,0,*7A
1529618631.57,19555,22.19,73850.3,5.81,3.93,4.05,0,*74
1529618632.77,19556,22.19,73850.8,5.79,2.81,2.99,0,*71
1529618633.96,19557,22.19,73850.5,5.81,4.15,4.15,0,*7E
1529618635.21,19558,22.19,73852.5,5.81,4.63,4.63,0,*71
1529618636.41,19559,22.19,73852.3,5.81,4.85,4.85,0,*70
1529618637.57,19560,22.19,73848.3,5.83,4.81,4.81,0,*78
1529618638.77,19561,22.19,73850.0,5.85,4.89,4.89,0,*7F
1529618639.97,19562,22.19,73844.5,5.89,5.41,5.41,0,*70
1529618641.18,19563,22.19,73844.8,5.89,5.19,5.15,0,*7D
1529618642.37,19564,22.19,73846.5,5.91,5.23,5.23,0,*7F
1529618643.57,19565,22.19,73844.3,5.91,5.19,5.19,0,*7E
1529618644.82,19566,22.19,73846.3,5.93,5.27,5.27,0,*7F
1529618646.04,19567,22.19,73846.5,5.93,5.23,5.23,0,*7E
1529618647.29,19568,22.19,73844.5,5.89,0.51,0.55,0,*7E
1529618648.53,19569,22.19,73842.5,5.85,4.01,4.01,0,*77
1529618649.75,19570,22.19,73842.5,5.85,4.67,4.57,0,*7C
1529618650.95,19571,22.19,73842.3,5.83,3.19,2.65,0,*72
1529618652.15,19572,22.19,73846.8,5.83,4.07,4.01,0,*7D
1529618653.38,19573,22.19,73844.0,5.83,4.71,4.79,0,*72
1529618654.58,19574,22.19,73842.8,5.83,4.93,4.89,0,*76
1529618655.82,19575,22.19,73842.3,5.83,5.01,5.01,0,*7C
1529618657.02,19576,22.19,73842.8,5.85,5.15,5.11,0,*7D
1529618658.23,19577,22.19,73846.5,5.89,5.19,5.19,0,*74
1529618659.48,19578,22.19,73842.0,5.89,3.45,3.53,0,*7C
1529618660.72,19579,22.19,73844.5,5.85,3.97,4.01,0,*7E
1529618661.92,19580,22.19,73840.5,5.89,4.53,4.49,0,*77
1529618663.12,19581,22.19,73842.8,5.85,4.89,4.81,0,*79
1529618664.35,19582,22.19,73840.5,5.89,4.97,4.85,0,*7D
1529618665.58,19583,22.19,73846.5,5.89,4.85,4.93,0,*78
1529618666.85,19584,22.19,73840.0,5.89,4.71,4.63,0,*7B
1529618668.08,19585,22.19,73842.5,5.91,4.75,4.79,0,*7C
1529618669.32,19586,22.19,73842.3,5.91,4.75,4.75,0,*73
1529618670.53,19587,22.19,73842.0,5.89,4.53,4.53,0,*7B
1529618671.77,19588,22.19,73844.5,5.89,1.37,1.79,0,*7E
1529618672.98,19589,22.19,73842.5,5.85,3.97,3.85,0,*7A
1529618674.16,19590,22.19,73842.3,5.83,4.45,4.33,0,*76
1529618675.34,19591,22.19,73840.8,5.83,4.57,4.37,0,*70
1529618676.53,19592,22.19,73840.8,5.85,4.49,4.45,0,*7F
1529618677.72,19593,22.19,73838.8,5.85,4.57,4.45,0,*71
1529618678.99,19594,22.19,73838.5,5.89,-0.89,-4.69,0,*43
1529618680.21,19595,22.19,73840.0,5.83,2.25,2.21,0,*76
1529618681.4,19596,22.19,73842.8,5.81,4.15,4.15,0,*73
1529618682.6,19597,22.19,73840.5,5.81,4.41,4.33,0,*77
1529618683.8,19598,22.19,73842.3,5.81,4.45,4.41,0,*79
1529618684.97,19599,22.19,73842.3,5.83,4.57,4.45,0,*7D
1529618686.19,19600,22.19,73842.0,5.85,4.59,4.49,0,*7A
1529618687.45,19601,22.19,73846.5,5.89,4.71,4.59,0,*7C
1529618688.68,19602,22.19,73840.5,5.89,4.81,4.63,0,*79
1529618689.92,19603,22.19,73842.8,5.91,4.79,4.63,0,*76
1529618691.14,19604,22.19,73840.0,5.89,4.81,4.59,0,*76
1529618692.4,19605,22.19,73842.0,5.89,4.71,4.59,0,*78
1529618693.59,19606,22.19,73840.8,5.91,4.45,4.37,0,*7D
1529618694.8,19607,22.19,73842.5,5.89,3.93,3.89,0,*7B
1529618696.03,19608,22.19,73840.5,5.89,2.61,2.47,0,*7B
1529618697.23,19609,22.19,73838.5,5.89,4.23,4.11,0,*7F
1529618698.4,19610,22.19,73836.8,5.83,4.57,4.49,0,*73
1529618699.65,19611,22.19,73838.3,5.85,4.79,4.71,0,*73
1529618700.89,19612,22.19,73838.5,5.85,-1.33,-1.35,0,*7E
1529618702.07,19613,22.19,73834.5,5.79,2.65,2.65,0,*7A
1529618703.27,19614,22.19,73838.8,5.79,4.33,4.31,0,*7F
1529618704.49,19615,22.19,73832.5,5.79,4.75,4.63,0,*7B
1529618705.69,19616,22.19,73838.5,5.79,1.05,0.83,0,*40
1529618706.89,19617,22.19,73834.5,5.75,3.89,3.79,0,*7D
1529618708.05,19618,22.19,73832.3,5.75,4.49,4.45,0,*71
1529618709.28,19619,22.19,73836.3,5.77,4.59,4.53,0,*74
1529618710.54,19620,22.19,73834.8,5.77,4.71,4.71,0,*74
1529618711.73,19621,22.19,73832.8,5.75,4.81,4.79,0,*70
1529618712.98,19622,22.19,73834.3,5.77,4.93,4.93,0,*76
1529618714.24,19623,22.19,73832.0,5.77,4.97,4.97,0,*77
1529618715.49,19624,22.19,73830.3,5.77,4.97,4.97,0,*70
1529618716.71,19625,22.19,73832.8,5.81,5.07,5.01,0,*7E
1529618717.91,19626,22.19,73830.3,5.81,5.07,5.07,0,*7B
1529618719.14,19627,22.19,73824.8,5.81,5.07,5.01,0,*7C
1529618720.36,19628,22.19,73826.0,5.81,5.01,4.89,0,*74
1529618721.59,19629,22.19,73830.5,5.83,5.01,5.05,0,*72
1529618722.8,19630,22.19,73832.0,5.83,5.05,5.11,0,*7B
1529618724.03,19631,22.19,73832.5,5.83,5.01,5.05,0,*7B
1529618725.23,19632,22.19,73828.3,5.83,4.93,4.89,0,*77
1529618726.48,19633,22.19,73826.5,5.85,4.71,4.67,0,*7C
1529618727.65,19634,22.19,73826.0,5.83,4.49,4.45,0,*76
1529618728.83,19635,22.19,73828.0,5.83,4.37,4.33,0,*7F
1529618730.03,19636,22.19,73826.5,5.85,4.49,4.57,0,*71
1529618731.27,19637,22.19,73826.0,5.85,4.67,4.67,0,*7F
1529618732.52,19638,22.19,73826.0,5.85,4.79,4.79,0,*70
1529618733.71,19639,22.19,73828.5,5.85,4.89,4.89,0,*71
1529618734.94,19640,22.19,73824.8,5.85,4.89,4.93,0,*74
1529618736.18,19641,22.19,73824.8,5.85,4.79,4.79,0,*7E
1529618737.39,19642,22.19,73824.3,5.83,4.89,4.93,0,*70
1529618738.65,19643,22.19,73826.0,5.85,4.71,4.71,0,*7C
1529618739.9,19644,22.19,73828.0,5.85,5.01,4.93,0,*71
1529618741.15,19645,22.19,73828.3,5.85,5.05,5.01,0,*7E
1529618742.36,19646,22.19,73830.8,5.85,5.11,5.11,0,*79
1529618743.61,19647,22.19,73830.3,5.85,5.05,5.01,0,*7C
1529618744.84,19648,22.19,73830.8,5.91,5.27,5.27,0,*72
1529618746.05,19649,22.19,73830.0,5.89,5.19,5.19,0,*7A
1529618747.24,19650,22.19,73830.3,5.91,5.23,5.23,0,*7B
1529618748.43,19651,22.19,73830.0,5.91,5.07,5.11,0,*7D
1529618749.64,19652,22.19,73826.5,5.91,5.23,5.27,0,*7D
1529618750.85,19653,22.19,73822.0,5.89,5.15,5.19,0,*7D
1529618752.04,19654,22.19,73820.8,5.91,5.11,5.11,0,*7F
1529618753.3,19655,22.19,73820.8,5.89,4.97,4.97,0,*77
1529618754.51,19656,22.19,73820.8,5.91,5.07,5.05,0,*7F
1529618755.75,19657,22.19,73816.5,5.91,4.75,4.75,0,*7C
1529618756.94,19658,22.19,73822.3,5.91,5.07,5.07,0,*73
1529618758.2,19659,22.19,73820.0,5.89,5.05,5.05,0,*7B
1529618759.39,19660,22.19,73820.0,5.91,5.19,5.19,0,*78
1529618760.59,19661,22.19,73822.5,5.91,5.19,5.19,0,*79
1529618761.8,19662,22.19,73824.3,5.89,5.23,5.19,0,*7A
1529618762.99,19663,22.19,73826.0,5.91,5.23,5.23,0,*7B
1529618764.19,19664,22.19,73822.5,5.91,5.23,5.23,0,*7C
1529618765.41,19665,22.19,73822.8,5.93,5.19,5.11,0,*77
1529618766.63,19666,22.19,73824.8,5.93,5.19,5.23,0,*75
1529618767.9,19667,22.19,73824.3,5.93,4.97,4.97,0,*7D
1529618769.12,19668,22.19,73824.0,5.93,5.19,5.19,0,*72
1529618770.34,19669,22.19,73822.3,5.93,5.19,5.07,0,*7C
1529618771.61,19670,22.19,73822.3,5.93,5.01,5.01,0,*7B
1529618772.85,19671,22.19,73824.0,5.93,4.85,4.75,0,*75
1529618774.06,19672,22.19,73824.5,5.93,5.07,4.85,0,*72
1529618775.3,19673,22.13,73822.5,5.93,5.01,4.89,0,*79
1529618776.5,19674,22.19,73826.5,5.93,5.07,4.89,0,*78
1529618777.74,19675,22.19,73820.3,5.93,5.01,4.89,0,*7F
1529618778.95,19676,22.19,73826.0,5.93,5.19,4.89,0,*75
1529618780.17,19677,22.19,73826.8,5.95,5.11,4.93,0,*71
1529618781.38,19678,22.19,73824.0,5.95,5.11,5.01,0,*74
1529618782.59,19679,22.19,73828.5,5.93,5.07,4.85,0,*79
1529618783.8,19680,22.19,73832.3,5.95,5.05,4.89,0,*77
1529618785.04,19681,22.13,73828.8,5.93,4.79,4.57,0,*79
1529618786.31,19682,22.19,73832.3,5.93,4.97,4.75,0,*7A
1529618787.57,19683,22.13,73830.8,5.93,5.01,4.79,0,*79
1529618788.84,19684,22.19,73832.5,5.93,4.97,4.79,0,*70
1529618790.11,19685,22.19,73828.3,5.93,4.97,4.79,0,*71
1529618791.31,19686,22.13,73828.8,5.95,5.01,4.81,0,*7D
1529618792.55,19687,22.13,73824.8,5.93,4.97,4.85,0,*70
1529618793.79,19688,22.19,73826.5,5.93,4.97,4.89,0,*73
1529618795.06,19689,22.13,73828.3,5.93,4.97,4.97,0,*7D
1529618796.26,19690,22.19,73830.8,5.91,4.97,4.89,0,*78
1529618797.45,19691,22.13,73824.3,5.91,4.89,4.89,0,*76
1529618798.68,19692,22.13,73826.8,5.91,4.79,4.79,0,*75
1529618799.92,19693,22.19,73826.0,5.91,4.79,4.67,0,*7B
1529618801.16,19694,22.13,73822.0,5.91,4.75,4.75,0,*73
1529618802.4,19695,22.13,73826.5,5.91,4.75,4.75,0,*72
1529618803.61,19696,22.19,73830.0,5.91,4.97,4.85,0,*72
1529618804.85,19697,22.13,73826.5,5.91,4.79,4.79,0,*70
1529618806.11,19698,22.13,73830.0,5.89,4.75,4.63,0,*71
1529618807.29,19699,22.13,73826.5,5.91,4.85,4.89,0,*72
1529618808.48,19700,22.13,73826.8,5.91,4.89,4.85,0,*73
1529618809.71,19701,22.13,73828.3,5.89,4.63,4.53,0,*74
1529618810.94,19702,22.13,73824.3,5.89,4.71,4.49,0,*7F
1529618812.15,19703,22.13,73830.8,5.91,4.63,4.53,0,*7F
1529618813.39,19704,22.13,73826.5,5.89,4.59,4.41,0,*7B
1529618814.62,19705,22.13,73830.8,5.89,4.71,4.53,0,*73
1529618815.85,19706,22.13,73830.8,5.89,4.81,4.59,0,*75
1529618817.09,19707,22.13,73830.0,5.91,4.97,4.75,0,*74
1529618818.35,19708,22.13,73828.5,5.89,4.93,4.71,0,*72
1529618819.58,19709,22.13,73830.0,5.89,4.85,4.59,0,*7E
1529618820.81,19710,22.13,73830.0,5.89,4.75,4.53,0,*73
1529618822.02,19711,22.13,73828.0,5.89,4.53,4.41,0,*75
1529618823.23,19712,22.13,73830.3,5.89,4.49,4.37,0,*7C
1529618824.43,19713,22.13,73828.3,5.85,4.57,4.37,0,*7E
1529618825.66,19714,22.19,73828.5,5.89,4.59,4.49,0,*72
1529618826.85,19715,22.13,73830.3,5.85,4.49,4.45,0,*72
1529618828.02,19716,22.13,73830.5,5.83,4.57,4.45,0,*78
1529618829.25,19717,22.13,73830.5,5.85,4.59,4.37,0,*74
1529618830.44,19718,22.13,73830.8,5.85,4.57,4.37,0,*75
1529618831.66,19719,22.13,73828.5,5.85,4.59,4.49,0,*73
1529618832.87,19720,22.13,73830.8,5.83,4.71,4.49,0,*75
1529618834.09,19721,22.13,73834.0,5.85,4.79,4.57,0,*75
1529618835.31,19722,22.13,73832.5,5.85,4.79,4.57,0,*76
1529618836.53,19723,22.13,73832.3,5.83,4.79,4.59,0,*7F
1529618837.76,19724,22.13,73830.8,5.83,5.01,4.79,0,*74
1529618838.96,19725,22.13,73832.0,5.83,4.89,4.59,0,*76
1529618840.17,19726,22.13,73834.3,5.83,4.89,4.67,0,*78
1529618841.39,19727,22.13,73834.8,5.85,4.89,4.67,0,*7F
1529618842.58,19728,22.13,73834.8,5.85,4.81,4.57,0,*7B
1529618843.8,19729,22.13,73836.0,5.85,4.79,4.49,0,*72
1529618845.03,19730,22.13,73834.8,5.83,4.93,4.67,0,*74
1529618846.26,19731,22.13,73832.0,5.83,5.01,4.79,0,*70
1529618847.45,19732,22.13,73836.3,5.85,5.11,4.89,0,*7B
1529618848.65,19733,22.13,73838.5,5.83,5.05,4.81,0,*71
1529618849.82,19734,22.13,73836.3,5.83,5.11,4.89,0,*7B
1529618851.03,19735,22.13,73838.5,5.83,5.11,5.01,0,*7B
1529618852.26,19736,22.13,73838.3,5.85,5.11,5.01,0,*7E
1529618853.46,19737,22.13,73834.5,5.85,5.11,5.11,0,*7E
1529618854.71,19738,22.13,73838.0,5.85,5.01,5.05,0,*75
1529618855.94,19739,22.13,73836.8,5.83,5.05,5.01,0,*72
1529618857.14,19740,22.13,73838.8,5.85,5.11,5.11,0,*7E
1529618858.34,19741,22.13,73840.3,5.83,5.15,5.05,0,*78
1529618859.57,19742,22.13,73838.3,5.85,5.19,5.05,0,*71
1529618860.79,19743,22.13,73840.3,5.85,5.19,5.05,0,*70
1529618862.0,19744,22.13,73842.0,5.85,5.19,5.11,0,*72
1529618863.22,19745,22.13,73842.0,5.85,5.15,5.05,0,*7A
1529618864.4,19746,22.13,73840.8,5.83,5.19,5.11,0,*76
1529618865.66,19747,22.13,73842.0,5.89,4.97,4.93,0,*71
1529618866.89,19748,22.13,73842.0,5.85,5.11,5.01,0,*77
1529618868.08,19749,22.13,73844.8,5.85,5.15,4.89,0,*73
1529618869.29,19750,22.13,73840.3,5.89,5.19,5.07,0,*7C
1529618870.5,19751,22.13,73842.8,5.89,5.19,5.15,0,*7E
1529618871.73,19752,22.13,73840.8,5.89,4.53,4.59,0,*7B
1529618872.96,19753,22.13,73842.8,5.85,5.11,5.05,0,*79
1529618874.2,19754,22.13,73844.8,5.85,5.05,5.05,0,*7B
1529618875.42,19755,22.13,73840.8,5.85,5.15,5.05,0,*7B
1529618876.65,19756,22.13,73844.3,5.85,5.15,5.01,0,*7C
1529618877.87,19757,22.13,73846.8,5.85,5.19,5.05,0,*75
1529618879.07,19758,22.13,73846.3,5.85,5.15,5.11,0,*73
1529618880.27,19759,22.13,73846.3,5.85,5.19,5.11,0,*7E
1529618881.48,19760,22.13,73846.5,5.89,5.23,5.15,0,*75
1529618882.69,19761,22.13,73844.0,5.91,5.27,5.19,0,*75
1529618883.9,19762,22.13,73844.0,5.89,5.23,5.15,0,*77
1529618885.1,19763,22.13,73848.3,5.89,5.29,5.15,0,*7C
1529618886.33,19764,22.13,73848.0,5.89,5.19,5.05,0,*79
1529618887.56,19765,22.13,73850.5,5.89,4.71,4.49,0,*7E
1529618888.8,19766,22.13,73850.0,5.89,4.85,4.75,0,*79
1529618890.01,19767,22.13,73850.3,5.89,5.19,5.15,0,*7B
1529618891.24,19768,22.13,73848.8,5.89,4.59,4.53,0,*72
1529618892.47,19769,22.13,73850.5,5.85,5.11,5.05,0,*70
1529618893.68,19770,22.13,73850.8,5.85,5.15,5.05,0,*7C
1529618894.89,19771,22.13,73848.8,5.89,5.23,5.15,0,*75
1529618896.08,19772,22.13,73846.3,5.91,5.23,5.15,0,*7F
1529618897.29,19773,22.13,73848.0,5.89,5.33,5.19,0,*7A
1529618898.55,19774,22.13,73848.8,5.85,5.05,5.01,0,*7D
1529618899.75,19775,22.13,73846.0,5.85,5.19,5.19,0,*78
1529618900.95,19776,22.13,73848.8,5.89,5.29,5.29,0,*77
1529618902.16,19777,22.13,73850.5,5.89,5.23,5.23,0,*76
1529618903.35,19778,22.13,73850.5,5.91,5.33,5.33,0,*70
1529618904.55,19779,22.13,73850.3,5.89,5.33,5.29,0,*73
1529618905.76,19780,22.13,73848.0,5.89,5.23,5.23,0,*7E
1529618906.96,19781,22.13,73848.0,5.89,5.29,5.33,0,*74
1529618908.17,19782,22.13,73850.5,5.89,5.33,5.29,0,*77
1529618909.37,19783,22.13,73848.8,5.89,5.33,5.29,0,*76
1529618910.58,19784,22.13,73854.8,5.89,5.41,5.33,0,*7F
1529618911.78,19785,22.13,73852.3,5.93,5.37,5.37,0,*70
1529618912.96,19786,22.13,73850.0,5.91,5.45,5.41,0,*75
1529618914.14,19787,22.13,73848.3,5.91,5.41,5.41,0,*70
1529618915.31,19788,22.13,73850.0,5.91,5.45,5.45,0,*7F
1529618916.51,19789,22.13,73852.5,5.89,5.41,5.45,0,*73
1529618917.72,19790,22.13,73852.0,5.91,5.27,5.33,0,*73
1529618918.91,19791,22.13,73852.8,5.91,5.19,5.19,0,*77
1529618920.15,19792,22.13,73852.5,5.91,5.01,4.97,0,*7A
1529618921.36,19793,22.13,73850.8,5.89,5.15,5.15,0,*7C
1529618922.57,19794,22.13,73848.0,5.89,5.23,5.19,0,*72
1529618923.8,19795,22.13,73850.5,5.93,5.27,5.19,0,*7C
1529618925.01,19796,22.13,73850.0,5.89,5.23,5.15,0,*7C
1529618926.2,19797,22.13,73850.8,5.91,5.33,5.19,0,*79
1529618927.41,19798,22.13,73852.5,5.91,5.27,5.19,0,*73
1529618928.64,19799,22.13,73854.0,5.91,5.27,5.27,0,*7F
1529618929.83,19800,22.13,73854.8,5.91,5.11,5.07,0,*77